Regional Weather Roundup
Issued by NWS

Home | Current Version | Previous Version | Text Only | Print | Product List | Glossary Off
Versions: 1 2 3 4 5 6 7 8 9 10 11 12 13 14 15 16 17 18 19 20 21 22 23 24 25 26 27 28 29 30 31 32 33 34 35 36 37 38 39 40 41 42 43 44 45 46 47 48 49 50

000
ASUS43 KDMX 311407
RWRIA

WEATHER ROUNDUP FOR IOWA
NATIONAL WEATHER SERVICE DES MOINES IA
800 AM CST SAT JAN 31 2015

NOTE: "FAIR" INDICATES FEW OR NO CLOUDS BELOW 12,000 FEET WITH NO
SIGNIFICANT WEATHER AND/OR OBSTRUCTIONS TO VISIBILITY.

* - THESE STATIONS ARE NOT NWS STATIONS...THUS NOT UNDER NWS
QUALITY CONTROL.  THEY ALSO DO NOT REPORT WEATHER SUCH
AS PRECIPITATION OR FOG.

IAZ001>003-012>014-020>022-031>034-043>046-311500-
   NORTHWEST IOWA

CITY           SKY/WX    TMP DP  RH WIND       PRES   REMARKS
CARROLL *      CLOUDY    36  34  93 SW13      30.14S WCI  27
CHEROKEE *     CLOUDY    27  27 100 CALM      30.12R FOG
DENISON *      CLOUDY    36  34  93 S10       30.12S WCI  28
LE MARS *      CLEAR     28  28 100 CALM      30.12R
ORANGE CITY *  CLOUDY    30  28  93 CALM      30.10R
SHELDON *      PTCLDY    27  27 100 E8        30.11R WCI  18
SIOUX CITY     CLOUDY    34  32  92 SE5       30.11S WCI  30
SPENCER        MOCLDY    25  22  88 CALM      30.13S
STORM LAKE *   CLOUDY    34  32  93 SW12      30.12S WCI  25
$$

IAZ055>058-069>071-079>083-090>094-311500-
   SOUTHWEST IOWA

CITY           SKY/WX    TMP DP  RH WIND       PRES   REMARKS
ATLANTIC *     CLOUDY    36  34  93 S10       30.17S FOG     WCI  28
AUDUBON *      MOCLDY    34  30  86 S7        30.17S WCI  28
CLARINDA *     MIX PCPN  36  36 100 S10       30.22F WCI  28
COUNCIL BLFS * CLOUDY    36  36 100 S10       30.14F WCI  28
CRESTON *      CLOUDY    34  34 100 SW8       30.19F WCI  27
HARLAN  *      CLOUDY    34  34 100 S10       30.19S FOG     WCI  26
LAMONI         CLOUDY    31  27  85 S10       30.22S WCI  22
RED OAK *      CLOUDY    36  36 100 S12       30.19S FOG     WCI  27
SHENANDOAH *   CLOUDY    37  36  93 S12       30.20F WCI  30
$$

IAZ047>049-059>061-072>074-084-311500-
   CENTRAL IOWA

CITY           SKY/WX    TMP DP  RH WIND       PRES   REMARKS
AMES           CLOUDY    33  28  81 SW9       30.16F WCI  25
ANKENY *       CLOUDY    36  30  80 SW8       30.18F WCI  29
CHARITON *     CLOUDY    34  27  75 SW7       30.21S WCI  28
DES MOINES     CLOUDY    36  29  75 SW7       30.19F WCI  30
GRINNELL*      CLOUDY    32  27  80 SW10      30.19S WCI  24
KNOXVILLE *    CLOUDY    34  27  75 SW10      30.19S WCI  26
MARSHALLTOWN   CLOUDY    29  24  82 SW6       30.16F WCI  23
PELLA *        CLOUDY    34  28  80 SW8       30.22S WCI  27
PERRY *          N/A     36  32  87 SW5       30.17S WCI  32
$$

IAZ004>006-015-016-023>025-035-036-311500-
   NORTH CENTRAL IOWA

CITY           SKY/WX    TMP DP  RH WIND       PRES   REMARKS
ALGONA *       CLOUDY    25  25 100 SW3       30.13S
CLARION *      MOCLDY    25  25 100 S3        30.14F
ESTHERVILLE    MOCLDY    24  22  91 NW7       30.12S WCI  16
FORT DODGE *   CLOUDY    30  27  86 CALM      30.14S
MASON CITY     MOCLDY    24  21  88 W6        30.14F WCI  17
FOREST CITY *  CLEAR     21  19  93 CALM      30.12F FOG
IOWA FALLS *   CLOUDY    28  25  86 SW5       30.16S WCI  23
$$

IAZ007>011-017>019-026>030-037>042-050>054-066-311500-
   NORTHEAST IOWA

CITY           SKY/WX    TMP DP  RH WIND       PRES   REMARKS
CEDAR RAPIDS   CLOUDY    30  25  81 SW7       30.18S WCI  23
CHARLES CITY * CLEAR     19  19 100 S6        30.15S WCI  11
CLINTON *      MOCLDY    25  19  80 SW8       30.24S WCI  16
DECORAH *      CLEAR     23  18  80 CALM      30.14S
DUBUQUE        CLOUDY    23  18  81 SW7       30.17S WCI  15
MONTICELLO *   CLOUDY    27  23  86 S5        30.19F WCI  21
OELWEIN *      MOCLDY    23  19  86 S5        30.17S WCI  17
WATERLOO       CLOUDY    25  21  85 S3        30.17S
$$

IAZ064-065-067-068-078-311500-
   EAST CENTRAL IOWA

CITY           SKY/WX    TMP DP  RH WIND       PRES   REMARKS
DAVENPORT      CLOUDY    29  21  72 SW8       30.22F WCI  21
IOWA CITY      CLOUDY    30  24  78 SW6       30.23S WCI  24
MT. PLEASANT * CLOUDY    28  23  80 SW7       30.25S WCI  21
MUSCATINE *    PTCLDY    32  25  74 SW5       30.24F WCI  27
QUAD CITIES    CLOUDY    30  22  72 SW9       30.23S WCI  22
$$

IAZ062-063-075>077-085>089-095>099-311500-
   SOUTHEAST IOWA

CITY           SKY/WX    TMP DP  RH WIND       PRES   REMARKS
BURLINGTON     CLOUDY    29  23  78 SW6       30.25F WCI  23
FAIRFIELD *    CLOUDY    30  23  74 SW8       30.23F WCI  23
FORT MADISON * CLOUDY    30  21  69 SW8       30.26F WCI  23
KEOKUK *       CLEAR     30  23  74 SW10      30.26F WCI  21
OSKALOOSA *    CLOUDY    32  28  86 SW9       30.22F WCI  24
CENTERVILLE *  CLOUDY    32  25  74 SW9       30.24F WCI  24
OTTUMWA        CLOUDY    33  26  75 SW8       30.21F WCI  26
WASHINGTON *   MOCLDY    32  27  80 SW9       30.23S WCI  24
$$

ABBREVIATIONS USED IN REMARKS
   TC - TEMPERATURES IN CELSIUS
  WCI - WIND CHILL INDEX
   HX - HEAT INDEX
  VSB - VISIBILITY
$$




USA.gov is the U.S. government's official web portal to all federal, state and local government web resources and services.